Weather History for Laramie, WY

Change the Weather History Date:

Tuesday, January 1, 2013

  Actual Average Record
Temperature  
Mean Temperature 1 °F 21 °F  
Max Temperature 14 °F 33 °F 51 °F (1997)
Min Temperature -13 °F 10 °F -38 °F (1979)
Degree Days  
Heating Degree Days 64 44  
Month to date heating degree days 64 44  
Since 1 July heating degree days 3209 3717  
Cooling Degree Days 0 0  
Month to date cooling degree days 0 0  
Year to date cooling degree days 0 0  
Moisture  
Dew Point -4 °F    
Average Humidity 83    
Maximum Humidity 100    
Minimum Humidity 66    
Precipitation  
Precipitation T in 0.01 in 0.19 in (1996)
Month to date precipitation T 0.01  
Year to date precipitation T 0.01  
Sea Level Pressure  
Sea Level Pressure 30.25 in    
Wind  
Wind Speed 4 mph (NE)    
Max Wind Speed 10 mph    
Max Gust Speed 13 mph    
Visibility 8 miles    
Events Fog    
T = Trace of Precipitation, MM = Missing Value Source: NWS Daily Summary

Daily Weather History Graph

Daily Weather History Graph

Search for Another Location

Airport:

Trip Planner

Search our weather history database for the weather conditions in past years. The results will help you decide how hot, cold, wet, or windy it might be!

Date:

Astronomy

Jan. 01, 2013 Rise Set
Actual Time 7:28 AM MST 4:44 PM MST
Civil Twilight 6:57 AM MST 5:15 PM MST
Nautical Twilight 6:22 AM MST 5:50 PM MST
Astronomical Twilight 5:49 AM MST 6:23 PM MST
Moon 9:21 PM MST 9:39 AM MST
Length of Visible Light 10h 18m
Length of Day
9h 15m
Waning Gibbous, 83% of the Moon is Illuminated
Jan 1
Waning Gibbous
Jan 4
Last Quarter
Jan 11
New
Jan 18
First Quarter
Jan 26
Full

Hourly Weather History & Observations

Time (MST) Temp. Windchill Dew Point Humidity Pressure Visibility Wind Dir Wind Speed Gust Speed Precip Events Conditions
12:07 AM -11.2 °F -26.4 °F -14.8 °F 84% 29.94 in 2.5 mi NNW 6.9 mph - N/A   Partly Cloudy
12:11 AM -9.4 °F -24.3 °F -13.0 °F 84% 29.93 in 1.0 mi NNW 6.9 mph - N/A   Mist
12:13 AM -9.4 °F -22.7 °F -11.2 °F 92% 29.93 in 0.5 mi North 5.8 mph - N/A Fog Light Freezing Fog
12:53 AM -7.1 °F -21.4 °F -9.0 °F 91% 30.25 in 0.5 mi North 6.9 mph - N/A Fog Light Freezing Fog
1:22 AM -7.6 °F -16.5 °F -9.4 °F 92% 29.94 in 1.0 mi NNE 3.5 mph - N/A   Mist
1:27 AM -5.8 °F -14.5 °F -9.4 °F 84% 29.94 in 4.0 mi NNE 3.5 mph - N/A   Mostly Cloudy
1:35 AM -7.6 °F - -9.4 °F 92% 29.95 in 10.0 mi Calm Calm - N/A   Scattered Clouds
1:53 AM -2.0 °F -12.2 °F -5.1 °F 87% 30.23 in 10.0 mi East 4.6 mph - N/A   Clear
2:53 AM -5.1 °F - -8.0 °F 87% 30.26 in 10.0 mi Calm Calm - N/A   Overcast
3:53 AM -2.0 °F -13.9 °F -6.0 °F 83% 30.27 in 10.0 mi East 5.8 mph - N/A   Overcast
4:53 AM -2.9 °F -11.2 °F -8.0 °F 79% 30.29 in 10.0 mi NE 3.5 mph - N/A   Overcast
6:53 AM -4.0 °F - -8.0 °F 83% 30.37 in 10.0 mi Calm Calm - N/A   Mostly Cloudy
7:53 AM -5.1 °F -19.1 °F -8.0 °F 87% 30.40 in 10.0 mi East 6.9 mph - N/A   Clear
8:53 AM -8.0 °F -16.9 °F -11.0 °F 86% 30.47 in 10.0 mi WSW 3.5 mph - 0.00 in   Clear
9:53 AM -5.1 °F -13.6 °F -7.1 °F 91% 30.45 in 10.0 mi West 3.5 mph - N/A   Mostly Cloudy
10:53 AM 3.9 °F - 3.9 °F 100% 30.38 in 10.0 mi Calm Calm - 0.00 in   Scattered Clouds
11:53 AM 7.0 °F - 3.9 °F 87% 30.40 in 10.0 mi Calm Calm - N/A   Overcast
12:53 PM 9.0 °F - 3.0 °F 77% 30.33 in 10.0 mi Calm Calm - N/A   Clear
1:53 PM 12.9 °F 3.8 °F 3.9 °F 67% 30.26 in 10.0 mi NE 5.8 mph - N/A   Clear
3:53 PM 10.9 °F 2.9 °F 1.9 °F 67% 30.27 in 10.0 mi NE 4.6 mph - N/A   Clear
4:53 PM 7.0 °F -4.5 °F -0.0 °F 73% 30.29 in 10.0 mi SE 6.9 mph - N/A   Clear
5:53 PM 6.1 °F - 1.0 °F 80% 30.32 in 10.0 mi Calm Calm - N/A   Clear
6:53 PM 1.0 °F -10.3 °F -2.0 °F 87% 30.39 in 10.0 mi SE 5.8 mph - N/A   Clear
7:53 PM 3.0 °F -9.3 °F -0.9 °F 84% 30.38 in 10.0 mi NE 6.9 mph - N/A   Overcast
8:53 PM 6.1 °F -5.6 °F 1.0 °F 80% 30.39 in 10.0 mi ENE 6.9 mph - N/A   Overcast
9:53 PM 7.0 °F -5.7 °F 3.0 °F 84% 30.38 in 10.0 mi SE 8.1 mph - 0.00 in   Overcast
10:53 PM 7.0 °F -1.7 °F 3.0 °F 84% 30.33 in 10.0 mi SSE 4.6 mph - N/A   Overcast
11:53 PM 12.0 °F -0.4 °F 5.0 °F 73% 30.30 in 10.0 mi NNW 9.2 mph - N/A   Overcast